Time,TemperatureF,DewpointF,PressureIn,WindDirection,WindDirectionDegrees,WindSpeedMPH,WindSpeedGustMPH,Humidity,HourlyPrecipIn,Conditions,Clouds,dailyrainin,SoftwareType,DateUTC
2013-04-24 00:13:00,71.8,64.0,30.08,NE,48,10.0,21.0,76,0.00,,,0.00,weatherlink.com 1.10,2013-04-24 04:13:00,
2013-04-24 00:28:00,71.5,64.0,30.09,ENE,58,11.0,18.0,76,0.00,,,0.00,weatherlink.com 1.10,2013-04-24 04:28:00,
2013-04-24 00:43:00,71.2,64.0,30.09,ENE,59,11.0,17.0,77,0.00,,,0.00,weatherlink.com 1.10,2013-04-24 04:43:00,
2013-04-24 00:58:00,71.0,64.0,30.09,NE,56,9.0,17.0,78,0.00,,,0.00,weatherlink.com 1.10,2013-04-24 04:58:00,
2013-04-24 01:13:00,70.7,64.0,30.08,ENE,61,12.0,16.0,78,0.00,,,0.00,weatherlink.com 1.10,2013-04-24 05:13:00,
2013-04-24 01:29:00,70.4,64.0,30.08,NE,53,10.0,14.0,79,0.00,,,0.00,weatherlink.com 1.10,2013-04-24 05:29:00,
2013-04-24 01:44:00,70.0,63.0,30.08,NE,53,8.0,12.0,79,0.00,,,0.00,weatherlink.com 1.10,2013-04-24 05:44:00,
2013-04-24 01:59:00,69.6,63.0,30.07,NE,39,8.0,11.0,80,0.00,,,0.00,weatherlink.com 1.10,2013-04-24 05:59:00,
2013-04-24 02:14:00,69.3,63.0,30.07,NE,45,10.0,11.0,80,0.00,,,0.00,weatherlink.com 1.10,2013-04-24 06:14:00,
2013-04-24 03:06:00,68.4,62.0,30.06,NE,54,9.0,12.0,81,0.00,,,0.00,weatherlink.com 1.10,2013-04-24 07:06:00,
2013-04-24 04:15:00,67.3,62.0,30.06,ENE,58,8.0,9.0,84,0.00,,,0.00,weatherlink.com 1.10,2013-04-24 08:15:00,
2013-04-24 04:29:00,67.1,62.0,30.06,NE,52,9.0,11.0,84,0.00,,,0.00,weatherlink.com 1.10,2013-04-24 08:29:00,
2013-04-24 04:44:00,66.9,62.0,30.06,ENE,58,8.0,10.0,85,0.00,,,0.00,weatherlink.com 1.10,2013-04-24 08:44:00,
2013-04-24 04:59:00,66.6,62.0,30.07,ENE,58,6.0,9.0,85,0.00,,,0.00,weatherlink.com 1.10,2013-04-24 08:59:00,
2013-04-24 05:14:00,66.4,62.0,30.07,NE,43,7.0,10.0,86,0.00,,,0.00,weatherlink.com 1.10,2013-04-24 09:14:00,
2013-04-24 05:29:00,66.1,62.0,30.07,NE,44,3.0,9.0,86,0.00,,,0.00,weatherlink.com 1.10,2013-04-24 09:29:00,
2013-04-24 05:44:00,65.8,62.0,30.07,NE,45,5.0,6.0,87,0.00,,,0.00,weatherlink.com 1.10,2013-04-24 09:44:00,
2013-04-24 06:00:00,65.6,62.0,30.07,NE,47,5.0,7.0,87,0.00,,,0.00,weatherlink.com 1.10,2013-04-24 10:00:00,
2013-04-24 06:15:00,65.4,62.0,30.08,NE,39,5.0,10.0,88,0.00,,,0.00,weatherlink.com 1.10,2013-04-24 10:15:00,
2013-04-24 06:30:00,65.4,62.0,30.08,NE,47,4.0,8.0,89,0.00,,,0.00,weatherlink.com 1.10,2013-04-24 10:30:00,
2013-04-24 06:45:00,65.4,62.0,30.09,NE,45,4.0,8.0,89,0.00,,,0.00,weatherlink.com 1.10,2013-04-24 10:45:00,
2013-04-24 07:00:00,65.2,62.0,30.09,ESE,116,4.0,7.0,89,0.00,,,0.00,weatherlink.com 1.10,2013-04-24 11:00:00,
2013-04-24 07:15:00,65.0,62.0,30.10,ENE,67,3.0,6.0,89,0.00,,,0.00,weatherlink.com 1.10,2013-04-24 11:15:00,
2013-04-24 07:30:00,65.0,62.0,30.10,ENE,67,3.0,6.0,90,0.00,,,0.00,weatherlink.com 1.10,2013-04-24 11:30:00,
2013-04-24 07:45:00,65.3,62.0,30.10,ENE,61,7.0,7.0,90,0.00,,,0.00,weatherlink.com 1.10,2013-04-24 11:45:00,
2013-04-24 08:00:00,65.9,63.0,30.10,NE,55,6.0,10.0,90,0.00,,,0.00,weatherlink.com 1.10,2013-04-24 12:00:00,
2013-04-24 08:15:00,66.5,63.0,30.11,ENE,62,6.0,9.0,89,0.00,,,0.00,weatherlink.com 1.10,2013-04-24 12:15:00,
2013-04-24 08:30:00,67.2,64.0,30.11,ENE,60,5.0,8.0,89,0.00,,,0.00,weatherlink.com 1.10,2013-04-24 12:30:00,
2013-04-24 08:45:00,68.1,65.0,30.12,NE,52,6.0,8.0,88,0.00,,,0.00,weatherlink.com 1.10,2013-04-24 12:45:00,
2013-04-24 09:00:00,69.2,65.0,30.12,NE,49,7.0,9.0,87,0.00,,,0.00,weatherlink.com 1.10,2013-04-24 13:00:00,
2013-04-24 09:15:00,70.5,66.0,30.13,NE,55,7.0,9.0,85,0.00,,,0.00,weatherlink.com 1.10,2013-04-24 13:15:00,
2013-04-24 09:30:00,71.9,66.0,30.13,ENE,60,7.0,11.0,82,0.00,,,0.00,weatherlink.com 1.10,2013-04-24 13:30:00,
2013-04-24 09:45:00,73.3,67.0,30.13,NE,56,6.0,9.0,80,0.00,,,0.00,weatherlink.com 1.10,2013-04-24 13:45:00,
2013-04-24 10:00:00,74.7,67.0,30.13,NE,45,7.0,11.0,78,0.00,,,0.00,weatherlink.com 1.10,2013-04-24 14:00:00,
2013-04-24 10:15:00,76.1,68.0,30.13,NE,55,9.0,12.0,75,0.00,,,0.00,weatherlink.com 1.10,2013-04-24 14:15:00,
2013-04-24 10:30:00,77.0,67.0,30.14,ENE,62,10.0,12.0,72,0.00,,,0.00,weatherlink.com 1.10,2013-04-24 14:30:00,
2013-04-24 10:45:00,78.0,68.0,30.13,ESE,113,3.0,14.0,71,0.00,,,0.00,weatherlink.com 1.10,2013-04-24 14:45:00,
2013-04-24 11:00:00,78.8,67.0,30.13,ENE,74,6.0,13.0,68,0.00,,,0.00,weatherlink.com 1.10,2013-04-24 15:00:00,
2013-04-24 11:15:00,79.1,67.0,30.14,ESE,114,7.0,13.0,67,0.00,,,0.00,weatherlink.com 1.10,2013-04-24 15:15:00,
2013-04-24 11:30:00,79.9,67.0,30.13,ESE,110,9.0,14.0,64,0.00,,,0.00,weatherlink.com 1.10,2013-04-24 15:30:00,
2013-04-24 11:45:00,81.0,69.0,30.13,NE,52,1.0,11.0,66,0.00,,,0.00,weatherlink.com 1.10,2013-04-24 15:45:00,
2013-04-24 12:00:00,81.8,68.0,30.12,ESE,113,6.0,10.0,63,0.00,,,0.00,weatherlink.com 1.10,2013-04-24 16:00:00,
2013-04-24 12:15:00,82.1,67.0,30.12,SE,143,2.0,12.0,60,0.00,,,0.00,weatherlink.com 1.10,2013-04-24 16:15:00,
2013-04-24 12:31:00,82.7,67.0,30.11,ESE,116,3.0,9.0,59,0.00,,,0.00,weatherlink.com 1.10,2013-04-24 16:31:00,
2013-04-24 12:46:00,83.8,70.0,30.11,ENE,57,0.0,9.0,64,0.00,,,0.00,weatherlink.com 1.10,2013-04-24 16:46:00,
2013-04-24 13:01:00,83.3,69.0,30.10,ENE,63,6.0,13.0,62,0.00,,,0.00,weatherlink.com 1.10,2013-04-24 17:01:00,
2013-04-24 13:16:00,85.0,68.0,30.10,ESE,104,1.0,11.0,57,0.00,,,0.00,weatherlink.com 1.10,2013-04-24 17:16:00,
2013-04-24 13:31:00,84.3,67.0,30.10,South,169,0.0,10.0,56,0.00,,,0.00,weatherlink.com 1.10,2013-04-24 17:31:00,
2013-04-24 13:46:00,82.6,68.0,30.09,SW,218,4.0,9.0,62,0.00,,,0.00,weatherlink.com 1.10,2013-04-24 17:46:00,
2013-04-24 14:01:00,82.6,69.0,30.09,West,260,5.0,11.0,64,0.00,,,0.00,weatherlink.com 1.10,2013-04-24 18:01:00,
2013-04-24 14:16:00,82.4,69.0,30.09,SW,227,7.0,11.0,65,0.00,,,0.00,weatherlink.com 1.10,2013-04-24 18:16:00,
2013-04-24 14:31:00,82.4,69.0,30.09,WSW,237,10.0,13.0,65,0.00,,,0.00,weatherlink.com 1.10,2013-04-24 18:31:00,
2013-04-24 14:46:00,82.3,69.0,30.08,WSW,241,8.0,14.0,65,0.00,,,0.00,weatherlink.com 1.10,2013-04-24 18:46:00,
2013-04-24 15:01:00,82.0,69.0,30.08,SW,220,6.0,16.0,64,0.00,,,0.00,weatherlink.com 1.10,2013-04-24 19:01:00,
2013-04-24 15:16:00,82.0,69.0,30.07,WSW,249,9.0,13.0,64,0.00,,,0.00,weatherlink.com 1.10,2013-04-24 19:16:00,
2013-04-24 15:31:00,82.2,68.0,30.07,SW,234,6.0,12.0,63,0.00,,,0.00,weatherlink.com 1.10,2013-04-24 19:31:00,
2013-04-24 15:46:00,82.0,69.0,30.07,WSW,254,10.0,14.0,64,0.00,,,0.00,weatherlink.com 1.10,2013-04-24 19:46:00,
2013-04-24 16:01:00,82.2,68.0,30.07,WSW,254,9.0,11.0,63,0.00,,,0.00,weatherlink.com 1.10,2013-04-24 20:01:00,
2013-04-24 16:16:00,82.4,69.0,30.06,West,266,3.0,14.0,63,0.00,,,0.00,weatherlink.com 1.10,2013-04-24 20:16:00,
2013-04-24 16:31:00,82.5,68.0,30.07,West,275,9.0,14.0,61,0.00,,,0.00,weatherlink.com 1.10,2013-04-24 20:31:00,
2013-04-24 16:46:00,82.5,68.0,30.06,WSW,255,8.0,15.0,61,0.00,,,0.00,weatherlink.com 1.10,2013-04-24 20:46:00,
2013-04-24 17:01:00,82.8,68.0,30.06,West,260,10.0,12.0,61,0.00,,,0.00,weatherlink.com 1.10,2013-04-24 21:01:00,
2013-04-24 17:16:00,82.9,68.0,30.06,WSW,254,8.0,11.0,62,0.00,,,0.00,weatherlink.com 1.10,2013-04-24 21:16:00,
2013-04-24 17:31:00,83.2,68.0,30.06,WNW,285,8.0,13.0,60,0.00,,,0.00,weatherlink.com 1.10,2013-04-24 21:31:00,
2013-04-24 17:46:00,83.0,68.0,30.06,WNW,283,7.0,10.0,60,0.00,,,0.00,weatherlink.com 1.10,2013-04-24 21:46:00,
2013-04-24 18:01:00,83.2,68.0,30.06,West,279,8.0,9.0,61,0.00,,,0.00,weatherlink.com 1.10,2013-04-24 22:01:00,
2013-04-24 18:16:00,82.9,69.0,30.06,West,262,8.0,9.0,63,0.00,,,0.00,weatherlink.com 1.10,2013-04-24 22:16:00,
2013-04-24 18:31:00,82.7,68.0,30.07,WNW,295,9.0,11.0,62,0.00,,,0.00,weatherlink.com 1.10,2013-04-24 22:31:00,
2013-04-24 18:46:00,82.2,69.0,30.07,NW,324,6.0,10.0,64,0.00,,,0.00,weatherlink.com 1.10,2013-04-24 22:46:00,
2013-04-24 19:01:00,81.2,69.0,30.08,WNW,287,9.0,11.0,66,0.00,,,0.00,weatherlink.com 1.10,2013-04-24 23:01:00,
2013-04-24 19:16:00,80.6,69.0,30.08,WNW,299,4.0,12.0,67,0.00,,,0.00,weatherlink.com 1.10,2013-04-24 23:16:00,
2013-04-24 19:31:00,80.0,68.0,30.08,NNW,333,3.0,10.0,67,0.00,,,0.00,weatherlink.com 1.10,2013-04-24 23:31:00,
2013-04-24 19:46:00,79.6,68.0,30.08,NW,312,1.0,7.0,67,0.00,,,0.00,weatherlink.com 1.10,2013-04-24 23:46:00,
2013-04-24 20:01:00,79.1,68.0,30.08,NW,311,3.0,4.0,68,0.00,,,0.00,weatherlink.com 1.10,2013-04-25 00:01:00,
2013-04-24 20:16:00,78.5,68.0,30.09,NW,311,1.0,4.0,69,0.00,,,0.00,weatherlink.com 1.10,2013-04-25 00:16:00,
2013-04-24 20:31:00,78.1,68.0,30.09,NW,311,1.0,3.0,70,0.00,,,0.00,weatherlink.com 1.10,2013-04-25 00:31:00,
2013-04-24 20:46:00,77.6,68.0,30.10,NW,311,1.0,4.0,72,0.00,,,0.00,weatherlink.com 1.10,2013-04-25 00:46:00,
2013-04-24 21:01:00,77.4,68.0,30.10,NW,311,0.0,1.0,72,0.00,,,0.00,weatherlink.com 1.10,2013-04-25 01:01:00,
2013-04-24 21:16:00,77.1,68.0,30.11,NW,311,0.0,3.0,73,0.00,,,0.00,weatherlink.com 1.10,2013-04-25 01:16:00,
2013-04-24 21:31:00,76.9,68.0,30.11,NW,311,0.0,1.0,74,0.00,,,0.00,weatherlink.com 1.10,2013-04-25 01:31:00,
2013-04-24 21:46:00,76.5,68.0,30.12,NW,311,0.0,1.0,75,0.00,,,0.00,weatherlink.com 1.10,2013-04-25 01:46:00,
2013-04-24 22:01:00,76.3,69.0,30.12,NW,311,0.0,1.0,77,0.00,,,0.00,weatherlink.com 1.10,2013-04-25 02:01:00,
2013-04-24 22:16:00,76.0,69.0,30.13,NW,311,0.0,4.0,78,0.00,,,0.00,weatherlink.com 1.10,2013-04-25 02:16:00,
2013-04-24 22:31:00,75.9,69.0,30.13,NW,311,2.0,4.0,79,0.00,,,0.00,weatherlink.com 1.10,2013-04-25 02:31:00,
2013-04-24 22:46:00,75.7,69.0,30.13,NW,311,4.0,4.0,80,0.00,,,0.00,weatherlink.com 1.10,2013-04-25 02:46:00,
2013-04-24 23:01:00,75.5,69.0,30.13,NNW,339,3.0,7.0,81,0.00,,,0.00,weatherlink.com 1.10,2013-04-25 03:01:00,
2013-04-24 23:16:00,75.4,70.0,30.14,North,358,2.0,6.0,82,0.00,,,0.00,weatherlink.com 1.10,2013-04-25 03:16:00,
2013-04-24 23:31:00,75.3,70.0,30.13,North,357,2.0,8.0,82,0.00,,,0.00,weatherlink.com 1.10,2013-04-25 03:31:00,
2013-04-24 23:46:00,75.0,69.0,30.14,North,357,3.0,5.0,82,0.00,,,0.00,weatherlink.com 1.10,2013-04-25 03:46:00,